Location: Cran-Gévrier
(45.9039°N, 6.1012°E)
Time: 05:41:04
(UTC+00:00)

USA 215 - Pass Details

Date: 09 February 2023
Orbit: 1102 x 1105 km, 123.0° (Epoch: 27 March)

Event Time Altitude Azimuth Distance (km) Brightness Sun altitude
Rises 17:23:22 0° 113° (ESE) 3,912 5.7 -5.9°
Reaches altitude 10° 17:25:51 10° 111° (ESE) 2,957 5.0 -6.4°
Maximum altitude 17:32:18 67° 31° (NNE) 1,188 3.3 -7.4°
Drops below altitude 10° 17:38:47 10° 310° (NW) 2,967 6.1 -8.5°
Sets 17:41:17 0° 308° (NW) 3,927 6.8 -9.0°
